Flag for Austria Weather past 2 weeks in Rust, Burgenland, Austria

Now
46 °F

Overcast.


Feels Like: 41 °F
Forecast: 35 / 44 °F
Wind: 9 mph from West

Location: Eisenstadt

Current Time: Mar 4, 2015 at 2:12:36 PM

Latest Report: Mar 4, 2015 at 1:00 PM


Visibility: 13 mi

Pressure: 30.23 "Hg

Humidity: 55%

Dew point: 30 °F

Location of RustLocation

Historic Weather in Rust — Graph

°F

Rust temperature yesterday

Maximum temperature yesterday: 50 °F (at 4:00 PM)
Minimum temperature yesterday: 36 °F (at 10:00 PM)
Average temperature yesterday: 43 °F

Past Weeks' High & Low Weather Summary

 TemperatureHumidityPressure
High57 °F (Feb 21, 3:00 PM)100% (Feb 20, 10:00 AM)30.78 "Hg (Feb 20, 10:00 AM)
Low27 °F (Feb 20, 5:00 AM)30% (Feb 21, 12:00 PM)29.57 "Hg (Feb 21, 3:00 PM)
Average40 °F74%30.04 "Hg
* Reported Feb 17 12:00 Noon — Mar 4 12:00 Noon, Rust, Weather by CustomWeather, © 2015

Note: Actual official high and low records may vary slightly from our data, if they occured in-between our weather recording intervals... More about our weather records

Advertising

Rust weather history for previous 24 hours

 ConditionsComfort  
Time TempWeatherWind HumidityBarometerVisibility
12:00 PM
Wed, Mar 4
46 °FCool.9 mph56%30.22 "HgN/A
11:00 AM45 °FCool.8 mph56%30.23 "HgN/A
10:00 AM44 °FOvercast.7 mph58%30.22 "Hg12 mi
9:00 AM45 °FCool.7 mph62%30.20 "HgN/A
8:00 AM40 °FQuite cool.3 mph59%30.16 "HgN/A
7:00 AM41 °FPartly sunny.5 mph55%30.14 "Hg12 mi
6:00 AM41 °FPassing clouds.5 mph51%30.14 "Hg6 mi
5:00 AM33 °FOvercast.1 mph72%30.14 "Hg6 mi
3:00 AM34 °FChilly.2 mph65%30.17 "HgN/A
2:00 AM33 °FChilly.3 mph62%30.19 "HgN/A
1:00 AM34 °FPassing clouds.3 mph60%30.19 "Hg6 mi
11:00 PM
Tue, Mar 3
36 °FChilly.2 mph55%30.23 "HgN/A
10:00 PM36 °FClear.5 mph58%30.24 "Hg12 mi
9:00 PM37 °FChilly.3 mph56%30.24 "HgN/A
8:00 PM38 °FChilly.2 mph59%30.24 "HgN/A
7:00 PM40 °FChilly.2 mph56%30.23 "HgN/A
6:00 PM43 °FQuite cool.3 mph49%30.22 "HgN/A
5:00 PM49 °FCool.3 mph33%30.20 "HgN/A
4:00 PM50 °FSunny.6 mph33%30.19 "Hg12 mi
3:00 PM50 °FCool.7 mph37%30.20 "HgN/A
2:00 PM49 °FCool.10 mph36%30.20 "HgN/A
Weather by CustomWeather, © 2015

See weather overviewHow to use our weather pages